Location: Marcé
(47.5801°N, 0.3280°W)
Time: 00:11:00
(UTC+01:00)

Vanguard 2 - Pass Details

Date: 05 December 2021
Orbit: 553 x 2936 km, 32.9° (Epoch: 20 January)

Event Time Altitude Azimuth Distance (km) Brightness Sun altitude
Rises 19:32:09 0° 252° (WSW) 4,108 12.7 -23.0°
Reaches altitude 10° 19:37:00 10° 225° (SW) 3,646 11.7 -23.8°
Maximum altitude 19:40:33 13° 203° (SSW) 3,797 11.4 -24.4°
Drops below altitude 10° 19:44:40 10° 182° (S) 4,384 11.4 -25.1°
Sets 19:52:12 0° 159° (SSE) 5,992 11.9 -26.3°
